Weather in Rodynske

Ukraine / Donetsk Region     48°21′11″N   37°12′36″E
temp.,
°C
wind,
m/s
gust,
m/s
humid.,
%
clouds,
%
prec.,
mm/h
press.,
hPa
HPBL,
m
6 may, thu
thu600:00+8s3456100 0.0 101667
03:00+8sse3658100 0.0 1015101
06:00+8se4961100 0.0 1015179
09:00+14sse695589 0.0 1014882
12:00+18s6744100 0.0 10131642
15:00+19s5540100 0.0 10121953
18:00+18s4551100 0.0 1012417
21:00+13ssw4765100 0.0 1013124
7 may, fri
fri700:00+13w237097 0.0 101384
03:00+11nnw3677100 0.0 1014221
06:00+10n3691100 0.0 1015237
09:00+14n3369100 0.0 1017636
12:00+18nne115280 0.0 10161321
15:00+20wsw244299 0.0 10152084
18:00+19s5554100 0.0 1014938
21:00+15s51066100 0.0 1015304
8 may, sat
sat800:00+12s4969100 0.0 1014231
03:00+12s51269100 0.0 1014358
06:00+11s51270100 0.0 1014371
09:00+14s51066100 0.0 1013480
12:00+19s7953100 0.0 10111058
15:00+20ssw795187 0.0 10101640
18:00+15nw5784100 0.3 1010387
21:00+11nnw6990100 0.5 1013653
9 may, sun
sun900:00+9nnw71290100 0.2 1013846
03:00+6n91390100 1.9 1014784
06:00+5nne81592100 6.4 10151018
09:00+7n81387100 10.1 10161208
12:00+8n91477100 0.7 10161343
15:00+11nnw91559100 0.9 10181879
18:00+11nnw8136199 0.3 10191580
21:00+8nw5126893 0.4 1021510
10 may, mon
mon1000:00+7nw71469100 0.0 1021582
03:00+7nw81471100 0.0 1021900
06:00+6nnw101881100 1.1 10201207
09:00+6nnw101889100 5.8 10191086
12:00+6n91593100 3.9 1019899
15:00+7n81393100 4.6 1018898
18:00+8n71396100 0.3 1018696
21:00+8ne51094100 0.5 1019627